METEOSAT 8 (MSG 1)

导读 | 星芒AI

METEOSAT 8(又称 MSG-1)是欧洲气象卫星组织(EUMETSAT)的首颗第二代静止气象卫星,于2002年12月22日发射。它位于东经35.8度的地球静止轨道,主要用于提供欧洲、非洲及周边地区的高分辨率气象图像和数据。该卫星搭载SEVIRI仪器,具备12个光谱通道,可每15分钟获取一次全盘图像,支持天气预报、气候监测和灾害预警。METEOSAT 8在2012年退役,由后续卫星接替其任务。

基本信息
目录编号:
27509
目录名称:
METEOSAT 8 (MSG 1)
国际标识:
2002-040B
轨道中心:
EARTH
卫星名称:
METEOSAT 8 (MSG 1)
卫星全名:
--
卫星状态:
在轨 (已飞行8510 天)
发射日期:
2002-08-28 UTC
国别 :
(EUME)
星等 :
--
轨道信息
数据来源 国际轨道数据
星历时间: 2025-12-14T15:33:39+0800
1天前
查看轨道信息
半长轴: 42841.763km
偏心率: 0.0012594
轨道倾角: 10.892°
近地点辐角 73.236°
升交点赤经 42.718°
平近点角 289.036°
近地点: 36409.673km
远地点: 36517.583km
周期: 1470.824分钟
每日圈数: 0.979043
详细信息
使用方式:
暂无
2D轨道图
3D轨道图
轨道高度分析图
轨道倾角分析图
轨道综合分析图
查看轨道综合分析图